Home > Time Zones > World Clock > Weather > Peru > Cuzco > Past weeks

Flag for Peru Weather past 2 weeks in Cuzco, Cusco, Peru

Now
34 °F

Clear.


Feels Like: 34 °F
Forecast: 33 / 64 °F
Wind: 1 mph from North

Location: Cuzco Airport

Current Time: Jul 22, 2014 at 3:13:28 AM

Latest Report: Jul 22, 2014 at 3:00 AM


Visibility: N/A

Pressure: 30.51 "Hg

Humidity: 87%

Dew point: 30 °F

Location of CuzcoLocation

Historic Weather in Cuzco — Graph

°F

Cuzco temperature yesterday

Maximum temperature yesterday: 66 °F (at 4:00 PM)
Minimum temperature yesterday: 39 °F (at 6:00 AM)
Average temperature yesterday: 51 °F

Past Weeks' High & Low Weather Summary

 TemperatureHumidityPressure
High72 °F (Jul 9, 3:00 PM)87% (Jul 22, 12:00 AM)30.69 "Hg (Jul 22, 12:00 AM)
Low28 °F (Jul 14, 5:00 AM)6% (Jul 14, 2:00 PM)30.33 "Hg (Jul 11, 3:00 PM)
Average50 °F49%30.53 "Hg
* Reported Jul 7 2:00 AM — Jul 22 2:00 AM, Cuzco, Weather by CustomWeather, © 2014

Note: Actual official high and low records may vary slightly from our data, if they occured in-between our weather recording intervals... More about our weather records

Advertising

Cuzco weather history for previous 24 hours

 ConditionsComfort  
Time TempWeatherWind HumidityBarometerVisibility
2:00 AM
Jul 22
36 °FClear.No wind81%30.51 "HgN/A
1:00 AM37 °FClear.No wind75%30.54 "HgN/A
12:00 AM37 °FClear.3 mph87%30.54 "HgN/A
11:00 PM
Jul 21
41 °FClear.2 mph76%30.57 "HgN/A
10:00 PM43 °FClear.No wind71%30.57 "HgN/A
9:00 PM46 °FPassing clouds.No wind66%30.54 "HgN/A
8:00 PM48 °FPassing clouds.5 mph62%30.54 "HgN/A
7:00 PM54 °FPassing clouds.8 mph41%30.48 "HgN/A
6:00 PM55 °FPassing clouds.17 mph38%30.42 "HgN/A
5:00 PM61 °FPassing clouds.9 mph27%30.39 "HgN/A
4:00 PM66 °FScattered clouds.3 mph21%30.39 "HgN/A
3:00 PM61 °FScattered showers. Scattered clouds.14 mph27%30.39 "HgN/A
2:00 PM64 °FScattered clouds.3 mph24%30.42 "HgN/A
1:00 PM64 °FScattered clouds.7 mph28%30.45 "HgN/A
12:00 PM63 °FPassing clouds.6 mph32%30.51 "HgN/A
11:00 AM59 °FPassing clouds.3 mph36%30.54 "HgN/A
10:00 AM55 °FPassing clouds.3 mph47%30.57 "HgN/A
9:00 AM54 °FPassing clouds.No wind51%30.60 "HgN/A
8:00 AM46 °FPassing clouds.No wind66%30.60 "HgN/A
7:00 AM39 °FPassing clouds.2 mph81%30.57 "HgN/A
6:00 AM39 °FPassing clouds.No wind81%30.54 "HgN/A
5:00 AM41 °FPassing clouds.No wind76%30.54 "HgN/A
4:00 AM43 °FClear.No wind71%30.54 "HgN/A
3:00 AM41 °FClear.No wind76%30.54 "HgN/A
Weather by CustomWeather, © 2014

See weather overviewHow to use our weather pages